Regional Weather Roundup
Issued by NWS

Home | Current Version | Previous Version | Text Only | Print | Product List | Glossary Off
Versions: 1 2 3 4 5 6 7 8 9 10 11 12 13 14 15 16 17 18 19 20 21 22 23 24 25 26 27 28 29 30 31 32 33 34 35 36 37 38 39 40 41 42 43 44 45 46 47 48 49 50

000
ASUS43 KMPX 300501
RWRMN
WEATHER ROUNDUP FOR MINNESOTA
NATIONAL WEATHER SERVICE TWIN CITIES/CHANHASSEN MN
1200 AM CDT WED JUL 30 2014


NOTE: "FAIR" INDICATES FEW OR NO CLOUDS BELOW 12,000 FEET WITH NO
SIGNIFICANT WEATHER AND/OR OBSTRUCTIONS TO VISIBILITY. N/A MEANS
CURRENT SKY AND/OR WEATHER CONDITIONS ARE NOT AVAILABLE.

MNZ060>063-068>070-300600-
   Twin Cities Metro

CITY           SKY/WX    TMP DP  RH WIND       PRES   REMARKS
TWIN CITIES    PTCLDY    69  54  58 NW6       30.06S
ST PAUL        CLEAR     64  61  90 E3        30.06F
CRYSTAL        CLEAR     67  54  63 NW5       30.05S
BLAINE         CLEAR     63  57  82 CALM      30.06S
LAKEVILLE      CLEAR     59  55  88 CALM      30.07S
EDEN PRAIRIE   CLEAR     66  57  72 W5        30.06S
SOUTH ST PAUL  CLEAR     65  59  80 CALM      30.06S
LAKE ELMO      FAIR      59  57  94 CALM      30.07F
$$
MNZ001>005-007-008-013>017-022>024-027-028-300600-
   Northwest Minnesota

CITY           SKY/WX    TMP DP  RH WIND       PRES   REMARKS
BEMIDJI        CLEAR     58  54  87 W6        30.09S
HALLOCK        CLEAR     61  55  82 CALM      30.09S
ROSEAU         CLEAR     63  55  77 W5        30.08S
WARROAD        CLEAR     64  54  68 W8        30.08S
THIEF RVR FALL CLEAR     63  57  82 CALM      30.10S
CROOKSTON      CLEAR     61  57  88 NW3       30.11S
FOSSTON        CLEAR     55  48  76 CALM      30.11S
DETROIT LAKES  CLEAR     63  55  77 CALM      30.13S
MOORHEAD       CLEAR     63  61  94 CALM      30.12S
PARK RAPIDS    CLEAR     57  54  89 NW6       30.10S
$$
MNZ006-009>011-018-025>026-300600-
   North Central Minnesota

CITY           SKY/WX    TMP DP  RH WIND       PRES   REMARKS
BAUDETTE       CLEAR     63  55  75 W6        30.07S
FLAG ISLAND    CLEAR     70  57  64 NW12      30.05S
INTL FALLS     MOCLDY    54  54 100 CALM      30.06R
WASKISH        CLEAR     66  55  68 CALM      30.07S
BIG FORK       PTCLDY    55  54  94 CALM      30.08S
LONGVILLE      CLEAR     59  57  94 W3        30.07S
GRAND RAPIDS   PTCLDY    59  55  88 CALM      30.07F
CRANE LAKE     FOG       52  52 100 CALM      30.07S VSB 3/4
ORR            PTCLDY    55  52  88 CALM      30.05S FOG
COOK           PTCLDY    54  52  94 CALM      30.07S
$$
MNZ012-019>021-037-300600-
   Northeast Minnesota

CITY           SKY/WX    TMP DP  RH WIND       PRES   REMARKS
DULUTH         PTCLDY    57  54  89 NW5       30.06R
ELY            PTCLDY    50  48  93 CALM      30.06S
HIBBING        PTCLDY    56  52  86 CALM      30.07S
EVELETH          N/A     54  54 100 CALM      30.07S FOG
DULUTH HARBOR  PTCLDY    59  57  94 SW6       30.05R
TWO HARBORS    CLEAR     55  52  88 CALM      30.03R
SILVER BAY     CLEAR     50  50 100 CALM      30.03S
GRAND MARAIS     N/A     51  49  92 NE3       30.04S
G MARAIS ARPRT CLEAR     48  46  93 N5        30.07S FOG
$$
MNZ029>031-032-039>041-046>048-054>057-064-300600-
   West Central Minnesota

CITY           SKY/WX    TMP DP  RH WIND       PRES   REMARKS
FERGUS FALLS   CLEAR     63  54  72 CALM      30.12S
WHEATON        CLEAR     57  55  94 CALM      30.13S
MORRIS         CLEAR     59  57  94 W3        30.11S
ALEXANDRIA     CLEAR     64  56  75 NW3       30.13S
ELBOW LAKE     FAIR      62  57  84 CALM      30.12S
WADENA         CLEAR     57  54  88 W5        30.11S
GLENWOOD       CLEAR     61  54  77 NW5       30.12S
APPLETON       CLEAR     59  55  88 CALM      30.11S
BENSON         CLEAR     57  55  94 CALM      30.12R
ORTONVILLE     CLEAR     61  55  82 NW3       30.12S
MADISON        CLEAR     61  57  88 W5        30.12S
WILLMAR        FAIR      61  54  77 CALM      30.12S
$$
MNZ033>034-036-042>043-049>051-058-059-300600-
   Central Minnesota

CITY           SKY/WX    TMP DP  RH WIND       PRES   REMARKS
ST CLOUD       CLEAR     62  54  74 CALM      30.08R
SAUK CENTRE    FAIR      57  54  90 NW3       30.11S
PAYNESVILLE    CLEAR     55  53  96 SW5       30.11S
AITKIN         PTCLDY    59  54  82 CALM      30.07R
PINE RIVER     CLEAR     57  55  94 CALM      30.11S
BRAINERD       LGT RAIN  63  55  75 VRB3      30.09R
STAPLES        CLEAR     57  54  88 W3        30.10S
LONG PRAIRIE   FAIR      61  54  77 CALM      30.11S
LITTLE FALLS   CLEAR     63  54  72 NW3       30.09S
LITCHFIELD       N/A     64  59  82 W5        30.10S
BUFFALO        CLEAR     65  55  68 CALM      30.08S
MAPLE LAKE     CLEAR     64  57  77 W3        30.09S
$$
MNZ037-044-045-052-053-300600-
   East Central Minnesota

CITY           SKY/WX    TMP DP  RH WIND       PRES   REMARKS
PRINCETON      CLEAR     57  54  88 CALM      30.08R
MORA           MOCLDY    59  54  82 CALM      30.10R
CAMBRIDGE      CLEAR     64  54  68 CALM      30.06S
RUSH CITY      MOCLDY    59  54  84 CALM      30.07S
MOOSE LAKE     FOG       55  54  94 SW3       30.05F VSB 3/4
HINCKLEY       FAIR      59  59 100 W5        30.08R
CLOQUET        CLEAR     54  52  94 W3        30.06S
MCGREGOR       MOCLDY    59  55  88 CALM      30.07S
$$
MNZ071>073-080-081-089-090-097-098-300600-
   Southwest Minnesota

CITY           SKY/WX    TMP DP  RH WIND       PRES   REMARKS
MONTEVIDEO     CLEAR     63  54  72 N3        30.12S
GRANITE FALLS  CLEAR     58  54  88 W5        30.13S
CANBY          CLEAR     58  54  85 W6        30.14S
MARSHALL       CLEAR     57  52  82 W6        30.11S
REDWOOD FALLS  CLEAR     62  55  77 NW6       30.10S
OLIVIA         CLEAR     59  54  82 CALM      30.10F
PIPESTONE      CLEAR     61  55  82 CALM      30.15S
WINDOM         CLEAR     57  54  88 CALM      30.13S
WORTHINGTON    CLEAR     55  54  94 W5        30.15S
JACKSON        CLEAR     57  54  88 W3        30.13S
TRACY          CLEAR     61  54  77 W3        30.13S
SLAYTON        CLEAR     58  55  88 CALM      30.15S
$$
MNZ065>067-074>077-082>085-091>093-300600-
   South Central Minnesota

CITY           SKY/WX    TMP DP  RH WIND       PRES   REMARKS
MANKATO        CLEAR     64  54  68 NW3       30.09S
NEW ULM        CLEAR     61  55  82 NW6       30.10S
ST JAMES       CLEAR     57  54  88 CALM      30.12R
FAIRMONT       CLEAR     61  52  72 NW3       30.11S
GLENCOE        CLEAR     62  55  78 CALM      30.08S
FARIBAULT      CLEAR     63  55  77 CALM      30.08S
OWATONNA       CLEAR     63  55  77 CALM      30.09R
WASECA         PTCLDY    55  50  82 W5        30.11S
ALBERT LEA     PTCLDY    63  55  77 W5        30.09S
$$
MNZ078>079-086>088-094>096-300600-
   Southeast Minnesota

CITY           SKY/WX    TMP DP  RH WIND       PRES   REMARKS
ROCHESTER      RAIN      62  59  90 NW13      30.10R FOG
RED WING       PTCLDY    61  57  88 CALM      30.05S
STANTON        MOCLDY    64  59  85 CALM      30.06S
DODGE CENTER   CLOUDY    64  59  82 CALM      30.09S
WINONA         MOCLDY    63  54  72 SW3       30.05F
AUSTIN         PTCLDY    61  55  82 CALM      30.09S
PRESTON        CLOUDY    62  61  97 NE13      30.09R
$$
ABBREVIATIONS USED IN REMARKS
   TC - TEMPERATURES IN CELSIUS
  WCI - WIND CHILL INDEX
   HX - HEAT INDEX
  VSB - VISIBILITY
$$



USA.gov is the U.S. government's official web portal to all federal, state and local government web resources and services.